TITAN 4B R/B

Last updated on Sun Dec 21 2025 00:02:18 GMT+0000 (Coordinated Universal Time)

1 26474U 00047B 25354.56537696 .00002337 00000+0 15420-3 0 9999 2 26474 67.9898 262.8762 0038375 135.1966 225.2293 15.08833094380975
UTC large
Height (km)
Speed (km/s)
/
Latitude / Longitude
Inclination (degrees)
Orbital Period (minutes)
Azimuth
Elevation
Range (km)
Doppler Factor

Next 0 passes for location: London (51.5072 / 0.1276)

Sorry there are no passes over London.